[[{"header":{"parameterUnit":"m.s-1","parameterCategory":1,"la1":30.2991,"la2":30.254,"lo1":-89.0895,"lo2":-89.0444,"dy":0.0017,"dx":0.0017,"nx":28,"ny":28,"refTime":"2025-08-15T09:00:00:Z","depth":0,"parameterNumber":2,"parameterNumberName":"U-component_of_WINDS"},"data":[0,0,0,0,0,0,0,0,0,0,0,0,0,0,0,0,0,0,0,0,0,0,0,0,0,0,0,0,0,0,0,0,0,0,0,0,0,0,0,0,0,0,0,0,0,0,0,0,0,0,0,0,0,0,0,0,0,0,2.6005,2.6006,0,2.6173,2.6175,2.6177,2.6184,2.6182,2.618,2.6178,2.635,2.6356,2.6363,0,0,0,0,0,0,0,0,0,0,0,0,0,2.569,2.5696,2.6004,2.6007,2.6009,2.6173,2.6175,2.6177,2.6185,2.6182,2.618,2.6178,2.6348,2.6356,2.6363,0,0,0,0,0,0,0,0,0,0,0,0,0,2.5839,2.5698,2.6004,2.6032,2.6036,2.6172,2.6175,2.6178,2.6185,2.6182,2.6179,2.6176,2.6345,2.6355,2.6364,2.6483,0,0,2.6394,2.6398,0,0,0,0,0,0,0,0,2.5831,2.5851,2.6026,2.603,2.6035,2.6155,2.6127,2.628,2.6186,2.6129,2.6178,2.6175,2.6287,2.6302,2.634,2.6491,2.6499,2.6395,2.64,2.6405,2.6407,0,0,0,0,0,0,0,2.582,2.5844,2.6071,2.6028,2.6034,2.6037,2.6054,2.6156,2.6223,2.6133,2.6134,2.6154,2.6289,2.633,2.6344,2.6501,2.6394,2.6403,2.6409,2.6413,2.6762,2.6765,0,0,0,0,0,0,2.5805,2.5835,2.6066,2.6076,2.5924,2.6045,2.6065,2.6119,2.6222,2.6234,2.6157,2.6154,2.6315,2.6333,2.635,2.6497,2.6405,2.6414,2.6419,2.6758,2.6762,2.6766,0,0,0,0,0,0,2.5798,2.5825,2.6059,2.5956,2.5986,2.6053,2.6115,2.6124,2.6165,2.6239,2.6251,2.6186,2.6314,2.6336,2.6451,2.6503,2.6418,2.6427,2.6754,2.6759,2.6764,2.6792,0,0,0,0,0,0,2.5789,2.5823,2.5868,2.5957,2.5991,2.6157,2.6118,2.613,2.6182,2.618,2.627,2.6282,2.6313,2.6436,2.646,2.6515,2.6434,2.675,2.6756,2.6763,2.6787,2.6798,2.6807,0,0,0,0,0,2.5777,2.5869,2.587,2.5898,2.605,2.616,2.618,2.6214,2.6186,2.6233,2.6281,2.6279,2.6494,2.6448,2.6475,2.6533,2.6746,2.6754,2.6762,2.6782,2.6796,2.6807,0,0,0,0,0,0,2.5784,2.5881,2.5884,2.6007,2.6075,2.6161,2.6221,2.6226,2.6304,2.6299,2.6337,2.6358,2.6472,2.6514,2.6461,2.6655,2.6617,2.6631,2.6623,2.6636,2.6646,2.6634,2.6442,0,0,0,0,0,2.58,2.5881,2.5961,2.6062,2.6096,2.6153,2.6202,2.6222,2.6295,2.6323,2.6379,2.645,2.6533,2.6587,2.6668,2.6793,2.6814,2.6847,2.6857,2.6865,2.6876,2.6947,2.6964,2.6792,2.6792,2.6792,0,0,2.5833,2.5896,2.5945,2.6065,2.612,2.6204,2.6177,2.6266,2.6329,2.6337,2.6449,2.6493,2.6574,2.6695,2.6751,2.6733,2.6929,2.6875,2.6881,2.6888,2.6957,2.6973,2.6988,2.6797,2.6796,2.6795,0,0,2.5936,2.5992,2.6082,2.6139,2.6224,2.6261,2.6283,2.6369,2.6398,2.6511,2.652,2.6595,2.6737,2.6795,2.6843,2.6971,2.6973,2.6996,2.7049,2.7118,2.7131,2.7144,2.719,2.7206,2.7007,2.7008,2.7008,0,2.5967,2.6093,2.6128,2.6218,2.6271,2.6284,2.6376,2.6429,2.6536,2.6572,2.6552,2.6732,2.6788,2.6923,2.6954,2.6993,2.7019,2.6986,2.7127,2.7139,2.7151,2.7196,2.7213,2.701,2.701,2.7009,2.7009,0,2.6127,2.6214,2.6277,2.6381,2.6441,2.6532,2.6581,2.6638,2.6654,2.6694,2.681,2.6877,2.6972,2.7006,2.7022,2.7145,2.7131,2.7118,2.7081,2.7169,2.7212,2.7229,2.7013,2.7012,2.7012,2.7011,0,0,2.6237,2.6361,2.6383,2.6431,2.6526,2.6595,2.6687,2.6781,2.6829,2.6903,2.6981,2.7103,2.7092,2.7147,2.717,2.723,2.7329,2.721,2.7213,2.723,2.7469,2.7478,2.7497,2.7331,2.7334,2.7337,2.7462,0,2.6351,2.6515,2.655,2.6692,2.6774,2.6788,2.6868,2.6936,2.6976,2.7052,2.7096,2.7182,2.7161,2.7194,2.7255,2.7304,2.7377,2.7295,2.7405,2.7408,2.7384,2.752,2.7529,2.7644,2.7479,2.7482,2.7484,0,2.6506,2.6584,2.6734,2.682,2.6856,2.6927,2.7017,2.7089,2.7167,2.7192,2.7254,2.7271,2.7368,2.7326,2.7461,2.7405,2.7452,2.7483,2.7488,2.75,2.7451,2.7535,2.7682,2.7699,2.7511,2.7509,2.7507,0,2.6573,2.6715,2.6824,2.6864,2.6967,2.7017,2.7062,2.7137,2.7192,2.7271,2.7307,2.7396,2.7444,2.7513,2.7554,2.752,2.7686,2.7647,2.771,2.7709,2.7744,2.7741,2.7901,2.7774,2.7774,2.7774,2.7773,0,2.6696,2.6787,2.6855,2.6922,2.7025,2.7065,2.7166,2.7212,2.7278,2.7354,2.7372,2.7443,2.7493,2.7572,2.7605,2.7712,2.7734,2.7757,2.7765,2.7756,2.7753,2.7787,2.778,2.7778,2.7777,2.7776,2.7776,0,2.6787,2.6836,2.6956,2.7044,2.7068,2.7141,2.7216,2.7282,2.7323,2.742,2.7445,2.7509,2.7603,2.7651,2.7767,2.779,2.7911,2.7913,2.7885,2.7888,2.7948,2.7942,2.8135,2.8163,2.8018,2.8019,2.802,0,2.6863,2.6934,2.703,2.7083,2.7129,2.7213,2.727,2.7313,2.7371,2.7466,2.7521,2.7615,2.7693,2.7842,2.79,2.799,2.7995,2.8056,2.8008,2.7997,2.7996,2.7992,2.7999,2.8065,2.8066,2.8067,2.8068,0,2.6992,2.7014,2.7094,2.7184,2.7251,2.7324,2.7395,2.7438,2.7493,2.7557,2.7653,2.7714,2.7834,2.7928,2.8023,2.807,2.8079,2.8083,2.8102,2.8094,2.8074,2.8086,2.7908,2.8078,2.8077,2.8076,2.8076,2.8075,2.7079,2.7143,2.7221,2.7311,2.7369,2.7436,2.7503,2.7553,2.7634,2.7735,2.7756,2.7858,2.7936,2.8064,2.8114,2.8195,2.8182,2.821,2.8217,2.8223,2.8226,2.8062,2.8212,2.8212,2.8212,2.8212,2.8212,0,2.7209,2.7261,2.7343,2.7443,2.7514,2.7517,2.7597,2.7656,2.7746,2.7818,2.7895,2.8006,2.8098,2.8164,2.8258,2.831,2.8317,2.8333,2.833,2.8341,2.8232,2.8206,2.8327,2.8327,2.8327,2.8326,2.8326,2.8326,2.7286,2.7394,2.7425,2.7564,2.7615,2.7715,2.7761,2.7824,2.7881,2.8005,2.8082,2.8124,2.8194,2.8293,2.8378,2.8395,2.8429,2.8446,2.8463,2.836,2.8348,2.8337,2.8312,2.8453,2.8453,2.8565,2.8566,2.8567]},{"header":{"parameterUnit":"m.s-1","parameterCategory":1,"la1":30.2991,"la2":30.254,"lo1":-89.0895,"lo2":-89.0444,"dy":0.0017,"dx":0.0017,"nx":28,"ny":28,"refTime":"2025-08-15T09:00:00:Z","depth":0,"parameterNumber":3,"parameterNumberName":"V-component_of_WINDS"},"data":[0,0,0,0,0,0,0,0,0,0,0,0,0,0,0,0,0,0,0,0,0,0,0,0,0,0,0,0,0,0,0,0,0,0,0,0,0,0,0,0,0,0,0,0,0,0,0,0,0,0,0,0,0,0,0,0,0,0,-0.4322,-0.4323,0,-0.4432,-0.4433,-0.4434,-0.4498,-0.4498,-0.4498,-0.4498,-0.4604,-0.4607,-0.461,0,0,0,0,0,0,0,0,0,0,0,0,0,-0.416,-0.4163,-0.4322,-0.4323,-0.4325,-0.4432,-0.4433,-0.4435,-0.4498,-0.4498,-0.4498,-0.4499,-0.4604,-0.4607,-0.461,0,0,0,0,0,0,0,0,0,0,0,0,0,-0.4246,-0.4164,-0.4321,-0.4369,-0.4374,-0.4432,-0.4433,-0.4435,-0.4498,-0.4498,-0.4498,-0.4499,-0.4603,-0.4606,-0.461,-0.4627,0,0,-0.4622,-0.4624,0,0,0,0,0,0,0,0,-0.4241,-0.4252,-0.4361,-0.4366,-0.4372,-0.4452,-0.4415,-0.4499,-0.4497,-0.4451,-0.4498,-0.4499,-0.4553,-0.4561,-0.458,-0.4632,-0.4636,-0.4622,-0.4625,-0.4626,-0.4628,0,0,0,0,0,0,0,-0.4235,-0.4247,-0.4365,-0.4362,-0.4369,-0.4383,-0.4396,-0.4431,-0.4498,-0.4455,-0.446,-0.4472,-0.4556,-0.4577,-0.4583,-0.4638,-0.4622,-0.4626,-0.4628,-0.463,-0.4708,-0.4708,0,0,0,0,0,0,-0.4222,-0.4242,-0.4362,-0.4368,-0.4306,-0.4386,-0.44,-0.4426,-0.4498,-0.4509,-0.4472,-0.4475,-0.457,-0.4579,-0.4587,-0.4612,-0.4626,-0.463,-0.4632,-0.4708,-0.4708,-0.4708,0,0,0,0,0,0,-0.4219,-0.4232,-0.4357,-0.4307,-0.4324,-0.4388,-0.4416,-0.4427,-0.4448,-0.4511,-0.4522,-0.4481,-0.457,-0.4582,-0.4617,-0.4616,-0.4632,-0.4635,-0.4709,-0.4708,-0.4708,-0.466,0,0,0,0,0,0,-0.4214,-0.4231,-0.4239,-0.4307,-0.4326,-0.4386,-0.4416,-0.4429,-0.4456,-0.4461,-0.4523,-0.4533,-0.4572,-0.4611,-0.4621,-0.4622,-0.4638,-0.4709,-0.4708,-0.4708,-0.4662,-0.4658,-0.4655,0,0,0,0,0,-0.4208,-0.4219,-0.4239,-0.4253,-0.4338,-0.4386,-0.4397,-0.4444,-0.4455,-0.4463,-0.4504,-0.4531,-0.4615,-0.4614,-0.4626,-0.4628,-0.4709,-0.4709,-0.4708,-0.4663,-0.4659,-0.4655,0,0,0,0,0,0,-0.4147,-0.4229,-0.4252,-0.4286,-0.4329,-0.4397,-0.4408,-0.4437,-0.4476,-0.4478,-0.4532,-0.4545,-0.4575,-0.4605,-0.4602,-0.4648,-0.4665,-0.4667,-0.4627,-0.4623,-0.462,-0.4611,-0.4642,0,0,0,0,0,-0.4138,-0.4173,-0.4242,-0.4265,-0.4286,-0.4343,-0.4366,-0.4398,-0.4444,-0.4462,-0.4505,-0.4546,-0.4582,-0.4604,-0.4641,-0.4667,-0.4681,-0.4674,-0.467,-0.4667,-0.4668,-0.4684,-0.4682,-0.4706,-0.4706,-0.4706,0,0,-0.4119,-0.4168,-0.4186,-0.4254,-0.4291,-0.4324,-0.4358,-0.4391,-0.4415,-0.4466,-0.4503,-0.4535,-0.4585,-0.4616,-0.4632,-0.4642,-0.4664,-0.4667,-0.4663,-0.4666,-0.4683,-0.4681,-0.4679,-0.4706,-0.4706,-0.4706,0,0,-0.4101,-0.4142,-0.4167,-0.4204,-0.4261,-0.4299,-0.4305,-0.4369,-0.4394,-0.4432,-0.4471,-0.45,-0.456,-0.4595,-0.462,-0.4616,-0.4643,-0.4627,-0.4607,-0.4622,-0.4621,-0.4619,-0.4618,-0.4616,-0.4627,-0.4627,-0.4627,0,-0.407,-0.4123,-0.4175,-0.4207,-0.4235,-0.4285,-0.431,-0.4342,-0.4407,-0.4424,-0.4436,-0.4514,-0.4551,-0.4591,-0.459,-0.4609,-0.4616,-0.4619,-0.4617,-0.4616,-0.4615,-0.4615,-0.4614,-0.4625,-0.4625,-0.4625,-0.4625,0,-0.4081,-0.4117,-0.413,-0.4194,-0.4224,-0.4251,-0.4306,-0.433,-0.4359,-0.4396,-0.4434,-0.4481,-0.4528,-0.454,-0.4568,-0.4583,-0.4588,-0.4607,-0.4626,-0.461,-0.461,-0.461,-0.4621,-0.4622,-0.4623,-0.4623,0,0,-0.4027,-0.4121,-0.4125,-0.4155,-0.4222,-0.425,-0.4279,-0.4328,-0.4347,-0.439,-0.4415,-0.4466,-0.4486,-0.4514,-0.4547,-0.456,-0.4554,-0.4578,-0.458,-0.4572,-0.4574,-0.4558,-0.4557,-0.4573,-0.4573,-0.4573,-0.457,0,-0.4018,-0.4076,-0.4125,-0.4164,-0.4198,-0.4246,-0.4272,-0.4315,-0.435,-0.4382,-0.4421,-0.4456,-0.4478,-0.4496,-0.4512,-0.4552,-0.4555,-0.4553,-0.4595,-0.4596,-0.4581,-0.4557,-0.4541,-0.4535,-0.457,-0.457,-0.457,0,-0.4016,-0.406,-0.4103,-0.4168,-0.4184,-0.4207,-0.4255,-0.4286,-0.4335,-0.436,-0.4393,-0.4428,-0.446,-0.4476,-0.452,-0.4517,-0.4537,-0.4559,-0.456,-0.4565,-0.4581,-0.4561,-0.4535,-0.4534,-0.4571,-0.4571,-0.4571,0,-0.3971,-0.4041,-0.4077,-0.4101,-0.4177,-0.4192,-0.4224,-0.4274,-0.4301,-0.4343,-0.436,-0.4404,-0.4428,-0.4461,-0.4506,-0.4513,-0.4545,-0.4564,-0.4565,-0.4564,-0.4568,-0.4567,-0.4544,-0.4582,-0.4582,-0.4582,-0.4582,0,-0.3956,-0.3981,-0.4058,-0.4079,-0.4108,-0.4163,-0.4189,-0.4225,-0.427,-0.4298,-0.4342,-0.4367,-0.4425,-0.4457,-0.4492,-0.4523,-0.4534,-0.4553,-0.4562,-0.4549,-0.4546,-0.4562,-0.4564,-0.4582,-0.4582,-0.4582,-0.4582,0,-0.3911,-0.3964,-0.4006,-0.4076,-0.4094,-0.4112,-0.4171,-0.4193,-0.4231,-0.4266,-0.4278,-0.4337,-0.4377,-0.4426,-0.448,-0.4504,-0.4531,-0.4545,-0.4515,-0.452,-0.4518,-0.4517,-0.4503,-0.4504,-0.4542,-0.4541,-0.4541,0,-0.3897,-0.3918,-0.3991,-0.4015,-0.4046,-0.4083,-0.4111,-0.4166,-0.4192,-0.4251,-0.4266,-0.4309,-0.4347,-0.4408,-0.4455,-0.4497,-0.4512,-0.4504,-0.4518,-0.4504,-0.4511,-0.4509,-0.4511,-0.45,-0.4499,-0.4499,-0.4498,0,-0.3868,-0.3894,-0.3934,-0.3983,-0.4016,-0.4057,-0.4099,-0.4115,-0.4178,-0.4206,-0.4249,-0.4278,-0.4335,-0.4378,-0.4426,-0.4457,-0.4487,-0.4494,-0.4496,-0.4482,-0.4464,-0.4474,-0.4504,-0.4493,-0.4494,-0.4494,-0.4495,-0.4495,-0.3838,-0.3859,-0.3914,-0.3957,-0.3995,-0.4034,-0.4059,-0.4102,-0.4139,-0.4192,-0.4221,-0.4263,-0.4312,-0.4381,-0.4411,-0.4443,-0.4454,-0.4457,-0.4458,-0.4458,-0.4453,-0.446,-0.4452,-0.4452,-0.4452,-0.4452,-0.4452,0,-0.381,-0.3849,-0.3888,-0.3948,-0.3981,-0.4011,-0.4059,-0.4085,-0.4122,-0.4166,-0.4204,-0.4252,-0.4294,-0.4345,-0.439,-0.4406,-0.4421,-0.4415,-0.4414,-0.4421,-0.4441,-0.4435,-0.4403,-0.4403,-0.4403,-0.4403,-0.4403,-0.4403,-0.3799,-0.3836,-0.3869,-0.3925,-0.3963,-0.4006,-0.4031,-0.4067,-0.4103,-0.4157,-0.4193,-0.4227,-0.4274,-0.4323,-0.4362,-0.4376,-0.4389,-0.438,-0.4397,-0.4415,-0.4419,-0.4424,-0.4418,-0.4383,-0.4383,-0.4375,-0.4375,-0.4375]}]]